Location: Crescent
(42.8242°N, 73.7329°W)
Time: 17:52:57
(UTC+00:00)

Vanguard 1 Rocket - Pass Details

Date: 18 February 2026
Orbit: 653 x 4214 km, 34.3° (Epoch: 8 March)

Event Time Altitude Azimuth Distance (km) Brightness Sun altitude
Rises 23:38:27 0° 279° (W) 6,257 13.4 -13.1°
Reaches altitude 10° 23:42:16 10° 273° (W) 5,653 12.9 -13.8°
Maximum altitude 23:59:28 43° 210° (SSW) 4,793 11.2 -16.9°
Drops below altitude 10° 00:22:33 10° 149° (SSE) 7,333 11.7 -21.2°
Sets 00:28:34 0° 143° (SE) 8,179 11.9 -22.3°
